| time (UTC) | temp F | wind direction | speed MPH | gust MPH | rain 1hr in | rain 24hr in | rain mn in | humidity % | barometer mb |
| 20260905123533 | 44 | 269 | 0.0 | 3.0 | 0.00 | 0.00 | 0.00 | 88 | 1019.0 |
| 20260905123058 | 44 | 273 | 1.0 | 3.0 | 0.00 | 0.00 | 0.00 | 88 | 1019.0 |
| 20260905122538 | 44 | 288 | 0.0 | 0.0 | 0.00 | 0.00 | 0.00 | 88 | 1019.0 |
| 20260905122019 | 44 | 288 | 0.0 | 2.0 | 0.00 | 0.00 | 0.00 | 88 | 1019.0 |
| 20260905121614 | 44 | 271 | 0.0 | 2.0 | 0.00 | 0.00 | 0.00 | 88 | 1018.9 |
| 20260905121028 | 44 | 271 | 1.0 | 2.0 | 0.00 | 0.00 | 0.00 | 87 | 1019.0 |
| 20260905120526 | 44 | 279 | 0.0 | 1.0 | 0.00 | 0.00 | 0.00 | 86 | 1019.0 |
| 20260905120107 | 44 | 283 | 0.0 | 2.0 | 0.00 | 0.00 | 0.00 | 86 | 1018.9 |
| 20260905115520 | 44 | 283 | 0.0 | 2.0 | 0.00 | 0.00 | 0.00 | 86 | 1019.0 |
| 20260905115028 | 44 | 269 | 0.0 | 2.0 | 0.00 | 0.00 | 0.00 | 86 | 1018.9 |
| 20260905114601 | 44 | 265 | 0.0 | 3.0 | 0.00 | 0.00 | 0.00 | 87 | 1019.0 |
| 20260905114025 | 44 | 265 | 1.0 | 3.0 | 0.00 | 0.00 | 0.00 | 87 | 1018.9 |
| 20260905113531 | 44 | 263 | 2.0 | 3.0 | 0.00 | 0.00 | 0.00 | 87 | 1018.9 |
| 20260905113108 | 44 | 293 | 0.0 | 0.0 | 0.00 | 0.00 | 0.00 | 87 | 1018.9 |
| 20260905112524 | 44 | 293 | 0.0 | 0.0 | 0.00 | 0.00 | 0.00 | 86 | 1018.8 |
| 20260905112032 | 45 | 293 | 0.0 | 2.0 | 0.00 | 0.00 | 0.00 | 87 | 1018.8 |
| 20260905111648 | 45 | 293 | 0.0 | 3.0 | 0.00 | 0.00 | 0.00 | 86 | 1018.9 |
| 20260905111020 | 45 | 294 | 1.0 | 3.0 | 0.00 | 0.00 | 0.00 | 85 | 1018.9 |
| 20260905110522 | 45 | 309 | 2.0 | 3.0 | 0.00 | 0.00 | 0.00 | 85 | 1018.8 |
| 20260905110051 | 45 | 300 | 0.0 | 3.0 | 0.00 | 0.00 | 0.00 | 86 | 1018.8 |
| 20260905105540 | 45 | 266 | 0.0 | 2.0 | 0.00 | 0.00 | 0.00 | 86 | 1018.8 |
| 20260905105033 | 45 | 250 | 0.0 | 2.0 | 0.00 | 0.00 | 0.00 | 86 | 1018.9 |
| 20260905104624 | 45 | 244 | 1.0 | 3.0 | 0.00 | 0.00 | 0.00 | 86 | 1018.8 |
| 20260905104038 | 45 | 240 | 1.0 | 3.0 | 0.00 | 0.00 | 0.00 | 86 | 1018.8 |
| 20260905103534 | 45 | 280 | 0.0 | 2.0 | 0.00 | 0.00 | 0.00 | 86 | 1018.8 |
| 20260905103125 | 45 | 250 | 1.0 | 3.0 | 0.00 | 0.00 | 0.00 | 86 | 1018.7 |
| 20260905102527 | 45 | 254 | 1.0 | 3.0 | 0.00 | 0.00 | 0.00 | 86 | 1018.8 |
| 20260905102043 | 45 | 265 | 1.0 | 3.0 | 0.00 | 0.00 | 0.00 | 85 | 1018.7 |
| 20260905101600 | 45 | 286 | 0.0 | 3.0 | 0.00 | 0.00 | 0.00 | 86 | 1018.7 |
| 20260905101029 | 45 | 290 | 2.0 | 3.0 | 0.00 | 0.00 | 0.00 | 86 | 1018.7 |
| 20260905100541 | 45 | 277 | 1.0 | 3.0 | 0.00 | 0.00 | 0.00 | 85 | 1018.7 |
| 20260905100110 | 45 | 250 | 1.0 | 3.0 | 0.00 | 0.00 | 0.00 | 85 | 1018.6 |
| 20260905095528 | 45 | 251 | 2.0 | 3.0 | 0.00 | 0.00 | 0.00 | 85 | 1018.6 |
| 20260905095027 | 46 | 258 | 1.0 | 3.0 | 0.00 | 0.00 | 0.00 | 85 | 1018.6 |
| 20260905094552 | 46 | 265 | 1.0 | 3.0 | 0.00 | 0.00 | 0.00 | 86 | 1018.5 |
| 20260905094028 | 46 | 252 | 1.0 | 3.0 | 0.00 | 0.00 | 0.00 | 85 | 1018.4 |
| 20260905093540 | 46 | 241 | 1.0 | 3.0 | 0.00 | 0.00 | 0.00 | 85 | 1018.5 |
| 20260905093127 | 46 | 252 | 0.0 | 3.0 | 0.00 | 0.00 | 0.00 | 85 | 1018.5 |
| 20260905092546 | 46 | 248 | 1.0 | 3.0 | 0.00 | 0.00 | 0.00 | 84 | 1018.3 |
| 20260905092042 | 46 | 234 | 1.0 | 3.0 | 0.00 | 0.00 | 0.00 | 84 | 1018.4 |
| 20260905091604 | 46 | 246 | 1.0 | 3.0 | 0.00 | 0.00 | 0.00 | 83 | 1018.4 |
| 20260905091032 | 46 | 245 | 1.0 | 3.0 | 0.00 | 0.00 | 0.00 | 82 | 1018.3 |
| 20260905090519 | 46 | 244 | 1.0 | 3.0 | 0.00 | 0.00 | 0.00 | 83 | 1018.2 |
| 20260905090131 | 47 | 244 | 2.0 | 4.0 | 0.00 | 0.00 | 0.00 | 83 | 1018.1 |
| 20260905085546 | 47 | 237 | 2.0 | 4.0 | 0.00 | 0.00 | 0.00 | 83 | 1018.0 |
| 20260905085024 | 47 | 238 | 2.0 | 3.0 | 0.00 | 0.00 | 0.00 | 84 | 1017.9 |
| 20260905084603 | 47 | 259 | 2.0 | 3.0 | 0.00 | 0.00 | 0.00 | 84 | 1017.8 |
| 20260905084020 | 47 | 250 | 1.0 | 3.0 | 0.00 | 0.00 | 0.00 | 84 | 1017.7 |
| 20260905083542 | 47 | 255 | 2.0 | 4.0 | 0.00 | 0.00 | 0.00 | 84 | 1017.7 |
| 20260905083104 | 47 | 245 | 2.0 | 4.0 | 0.00 | 0.00 | 0.00 | 84 | 1017.7 |
| 20260905082537 | 47 | 253 | 1.0 | 3.0 | 0.00 | 0.00 | 0.00 | 83 | 1017.7 |
| 20260905082025 | 47 | 244 | 2.0 | 4.0 | 0.00 | 0.00 | 0.00 | 82 | 1017.5 |
| 20260905081542 | 47 | 237 | 2.0 | 4.0 | 0.00 | 0.00 | 0.00 | 82 | 1017.7 |
| 20260905081020 | 47 | 219 | 2.0 | 4.0 | 0.00 | 0.00 | 0.00 | 82 | 1017.7 |
| 20260905080538 | 48 | 248 | 1.0 | 4.0 | 0.00 | 0.00 | 0.00 | 82 | 1017.6 |
| 20260905080124 | 48 | 254 | 2.0 | 4.0 | 0.00 | 0.00 | 0.00 | 81 | 1017.6 |
| 20260905075540 | 48 | 254 | 1.0 | 4.0 | 0.00 | 0.00 | 0.00 | 82 | 1017.6 |
| 20260905075042 | 48 | 244 | 1.0 | 4.0 | 0.00 | 0.00 | 0.00 | 82 | 1017.6 |
| 20260905074624 | 48 | 246 | 2.0 | 4.0 | 0.00 | 0.00 | 0.00 | 81 | 1017.6 |
| 20260905074038 | 48 | 244 | 2.0 | 4.0 | 0.00 | 0.00 | 0.00 | 82 | 1017.5 |
| 20260905073521 | 48 | 246 | 2.0 | 4.0 | 0.00 | 0.00 | 0.00 | 82 | 1017.5 |
| 20260905073113 | 48 | 256 | 1.0 | 3.0 | 0.00 | 0.00 | 0.00 | 81 | 1017.5 |
| 20260905072543 | 48 | 226 | 2.0 | 4.0 | 0.00 | 0.00 | 0.00 | 81 | 1017.5 |
| 20260905072028 | 49 | 227 | 2.0 | 4.0 | 0.00 | 0.00 | 0.00 | 81 | 1017.5 |
| 20260905071625 | 49 | 238 | 2.0 | 4.0 | 0.00 | 0.00 | 0.00 | 81 | 1017.4 |
| 20260905071025 | 49 | 246 | 2.0 | 4.0 | 0.00 | 0.00 | 0.00 | 81 | 1017.4 |
| 20260905070541 | 49 | 258 | 1.0 | 4.0 | 0.00 | 0.00 | 0.00 | 82 | 1017.4 |
| 20260905070109 | 49 | 248 | 2.0 | 4.0 | 0.00 | 0.00 | 0.00 | 82 | 1017.4 |
| 20260905065531 | 49 | 281 | 2.0 | 4.0 | 0.00 | 0.00 | 0.00 | 83 | 1017.4 |
| 20260905065022 | 49 | 248 | 1.0 | 3.0 | 0.00 | 0.00 | 0.00 | 82 | 1017.4 |
| 20260905064625 | 50 | 246 | 2.0 | 3.0 | 0.00 | 0.00 | 0.00 | 81 | 1017.4 |
| 20260905064045 | 49 | 260 | 0.0 | 3.0 | 0.00 | 0.00 | 0.00 | 83 | 1017.4 |
| 20260905063525 | 49 | 261 | 0.0 | 3.0 | 0.00 | 0.00 | 0.00 | 82 | 1017.2 |
| 20260905063130 | 50 | 245 | 1.0 | 4.0 | 0.00 | 0.00 | 0.00 | 82 | 1017.1 |
| 20260905062525 | 50 | 257 | 1.0 | 4.0 | 0.00 | 0.00 | 0.00 | 82 | 1017.1 |
| 20260905062032 | 50 | 240 | 2.0 | 3.0 | 0.00 | 0.00 | 0.00 | 81 | 1017.0 |
| 20260905061631 | 50 | 248 | 2.0 | 4.0 | 0.00 | 0.00 | 0.00 | 81 | 1017.0 |
| 20260905061024 | 50 | 240 | 2.0 | 4.0 | 0.00 | 0.00 | 0.00 | 81 | 1017.0 |
| 20260905060532 | 51 | 242 | 2.0 | 3.0 | 0.00 | 0.00 | 0.00 | 81 | 1017.1 |
| 20260905060057 | 51 | 259 | 1.0 | 3.0 | 0.00 | 0.00 | 0.00 | 81 | 1017.1 |
| 20260905055528 | 51 | 240 | 1.0 | 3.0 | 0.00 | 0.00 | 0.00 | 81 | 1017.2 |
| 20260905055027 | 51 | 273 | 0.0 | 3.0 | 0.00 | 0.00 | 0.00 | 81 | 1017.0 |
| 20260905054628 | 51 | 248 | 1.0 | 4.0 | 0.00 | 0.00 | 0.00 | 80 | 1017.1 |
| 20260905054029 | 51 | 251 | 1.0 | 4.0 | 0.00 | 0.00 | 0.00 | 79 | 1017.1 |
| 20260905053524 | 51 | 230 | 2.0 | 4.0 | 0.00 | 0.00 | 0.00 | 79 | 1017.2 |
| 20260905053104 | 51 | 239 | 2.0 | 4.0 | 0.00 | 0.00 | 0.00 | 80 | 1017.2 |
| 20260905052543 | 51 | 241 | 2.0 | 3.0 | 0.00 | 0.00 | 0.00 | 79 | 1017.1 |
| 20260905052019 | 51 | 224 | 0.0 | 3.0 | 0.00 | 0.00 | 0.00 | 80 | 1017.2 |
| 20260905051601 | 51 | 240 | 2.0 | 3.0 | 0.00 | 0.00 | 0.00 | 81 | 1017.2 |
| 20260905051023 | 51 | 236 | 2.0 | 3.0 | 0.00 | 0.00 | 0.00 | 80 | 1017.2 |
| 20260905050532 | 52 | 233 | 1.0 | 3.0 | 0.00 | 0.00 | 0.00 | 79 | 1017.1 |
| 20260905050100 | 52 | 233 | 1.0 | 3.0 | 0.00 | 0.00 | 0.00 | 80 | 1017.1 |
| 20260905045528 | 52 | 226 | 2.0 | 3.0 | 0.00 | 0.00 | 0.00 | 79 | 1016.9 |
| 20260905045030 | 52 | 233 | 1.0 | 2.0 | 0.00 | 0.00 | 0.00 | 78 | 1016.9 |
| 20260905044626 | 52 | 234 | 1.0 | 4.0 | 0.00 | 0.00 | 0.00 | 78 | 1016.8 |
| 20260905044031 | 52 | 222 | 2.0 | 4.0 | 0.00 | 0.00 | 0.00 | 78 | 1016.9 |
| 20260905043539 | 52 | 230 | 2.0 | 3.0 | 0.00 | 0.00 | 0.00 | 77 | 1016.9 |
| 20260905043131 | 53 | 226 | 1.0 | 3.0 | 0.00 | 0.00 | 0.00 | 77 | 1017.0 |
| 20260905042524 | 53 | 223 | 2.0 | 3.0 | 0.00 | 0.00 | 0.00 | 77 | 1017.0 |
| 20260905042029 | 53 | 245 | 1.0 | 3.0 | 0.00 | 0.00 | 0.00 | 78 | 1016.9 |
| 20260905041602 | 53 | 226 | 1.0 | 3.0 | 0.00 | 0.00 | 0.00 | 78 | 1016.8 |
| 20260905041029 | 53 | 238 | 0.0 | 0.0 | 0.00 | 0.00 | 0.00 | 78 | 1016.8 |
| 20260905040520 | 53 | 221 | 0.0 | 0.0 | 0.00 | 0.00 | 0.00 | 77 | 1016.8 |
| 20260905040128 | 53 | 225 | 0.0 | 0.0 | 0.00 | 0.00 | 0.00 | 77 | 1016.7 |
| 20260905035520 | 53 | 225 | 0.0 | 4.0 | 0.00 | 0.00 | 0.00 | 78 | 1016.7 |
| 20260905035044 | 53 | 198 | 1.0 | 4.0 | 0.00 | 0.00 | 0.00 | 78 | 1016.6 |
| 20260905034607 | 53 | 225 | 1.0 | 3.0 | 0.00 | 0.00 | 0.00 | 77 | 1016.5 |
| 20260905034042 | 53 | 225 | 1.0 | 4.0 | 0.00 | 0.00 | 0.00 | 77 | 1016.5 |
| 20260905033531 | 53 | 226 | 2.0 | 3.0 | 0.00 | 0.00 | 0.00 | 77 | 1016.5 |
| 20260905033138 | 53 | 232 | 2.0 | 3.0 | 0.00 | 0.00 | 0.00 | 77 | 1016.5 |
| 20260905032526 | 53 | 225 | 2.0 | 3.0 | 0.00 | 0.00 | 0.00 | 77 | 1016.5 |
| 20260905032038 | 54 | 232 | 0.0 | 3.0 | 0.00 | 0.00 | 0.00 | 77 | 1016.5 |
| 20260905031609 | 54 | 235 | 2.0 | 3.0 | 0.00 | 0.00 | 0.00 | 77 | 1016.2 |
| 20260905031045 | 54 | 240 | 2.0 | 3.0 | 0.00 | 0.00 | 0.00 | 77 | 1016.1 |
| 20260905030534 | 54 | 221 | 0.0 | 3.0 | 0.00 | 0.00 | 0.00 | 76 | 1016.2 |
| 20260905030128 | 55 | 228 | 1.0 | 3.0 | 0.00 | 0.00 | 0.00 | 76 | 1016.1 |
| 20260905025521 | 55 | 223 | 2.0 | 3.0 | 0.00 | 0.00 | 0.00 | 74 | 1016.0 |
| 20260905025027 | 55 | 242 | 1.0 | 3.0 | 0.00 | 0.00 | 0.00 | 73 | 1015.9 |
| 20260905024625 | 55 | 213 | 1.0 | 3.0 | 0.00 | 0.00 | 0.00 | 70 | 1015.9 |
| 20260905024033 | 55 | 243 | 1.0 | 3.0 | 0.00 | 0.00 | 0.00 | 75 | 1015.8 |
| 20260905023540 | 55 | 232 | 1.0 | 3.0 | 0.00 | 0.00 | 0.00 | 75 | 1015.8 |
| 20260905023134 | 56 | 238 | 2.0 | 3.0 | 0.00 | 0.00 | 0.00 | 75 | 1015.7 |
| 20260905022532 | 56 | 229 | 1.0 | 3.0 | 0.00 | 0.00 | 0.00 | 73 | 1015.7 |
| 20260905022018 | 56 | 232 | 1.0 | 3.0 | 0.00 | 0.00 | 0.00 | 72 | 1015.7 |
| 20260905021633 | 57 | 233 | 0.0 | 3.0 | 0.00 | 0.00 | 0.00 | 71 | 1015.8 |
| 20260905021023 | 57 | 226 | 0.0 | 0.0 | 0.00 | 0.00 | 0.00 | 71 | 1015.7 |
| 20260905020522 | 57 | 224 | 0.0 | 0.0 | 0.00 | 0.00 | 0.00 | 67 | 1015.7 |
| 20260905020133 | 57 | 221 | 0.0 | 0.0 | 0.00 | 0.00 | 0.00 | 66 | 1015.5 |
| 20260905015530 | 58 | 206 | 0.0 | 3.0 | 0.00 | 0.00 | 0.00 | 64 | 1015.4 |
| 20260905015030 | 58 | 195 | 1.0 | 3.0 | 0.00 | 0.00 | 0.00 | 68 | 1015.3 |
| 20260905014622 | 58 | 245 | 0.0 | 3.0 | 0.00 | 0.00 | 0.00 | 69 | 1015.2 |
| 20260905014018 | 58 | 250 | 1.0 | 3.0 | 0.00 | 0.00 | 0.00 | 71 | 1015.1 |
| 20260905013528 | 58 | 246 | 0.0 | 1.0 | 0.00 | 0.00 | 0.00 | 72 | 1015.0 |
| 20260905013103 | 58 | 245 | 0.0 | 3.0 | 0.00 | 0.00 | 0.00 | 71 | 1014.9 |
| 20260905012540 | 58 | 246 | 2.0 | 3.0 | 0.00 | 0.00 | 0.00 | 71 | 1015.0 |
| 20260905012041 | 59 | 249 | 1.0 | 3.0 | 0.00 | 0.00 | 0.00 | 69 | 1014.8 |
| 20260905011605 | 59 | 246 | 1.0 | 3.0 | 0.00 | 0.00 | 0.00 | 69 | 1014.9 |
| 20260905011024 | 59 | 246 | 2.0 | 3.0 | 0.00 | 0.00 | 0.00 | 69 | 1015.0 |
| 20260905010537 | 60 | 236 | 1.0 | 3.0 | 0.00 | 0.00 | 0.00 | 68 | 1014.9 |
| 20260905010135 | 60 | 247 | 0.0 | 3.0 | 0.00 | 0.00 | 0.00 | 65 | 1015.0 |
| 20260905005531 | 60 | 254 | 1.0 | 3.0 | 0.00 | 0.00 | 0.00 | 64 | 1014.8 |
| 20260905005028 | 61 | 231 | 0.0 | 2.0 | 0.00 | 0.00 | 0.00 | 61 | 1014.7 |
| 20260905004625 | 61 | 227 | 0.0 | 2.0 | 0.00 | 0.00 | 0.00 | 63 | 1014.8 |
| 20260905004032 | 61 | 227 | 0.0 | 2.0 | 0.00 | 0.00 | 0.00 | 59 | 1014.7 |
| 20260905003531 | 61 | 236 | 1.0 | 3.0 | 0.00 | 0.00 | 0.00 | 58 | 1014.7 |
| 20260905003134 | 62 | 183 | 1.0 | 3.0 | 0.00 | 0.00 | 0.00 | 55 | 1014.6 |
| 20260905002527 | 62 | 197 | 0.0 | 1.0 | 0.00 | 0.00 | 0.00 | 59 | 1014.7 |
| 20260905002022 | 62 | 176 | 0.0 | 2.0 | 0.00 | 0.00 | 0.00 | 56 | 1014.6 |
| 20260905001601 | 62 | 180 | 0.0 | 2.0 | 0.00 | 0.00 | 0.00 | 53 | 1014.6 |
| 20260905001036 | 62 | 166 | 0.0 | 2.0 | 0.00 | 0.00 | 0.00 | 52 | 1014.5 |
| 20260905000528 | 62 | 147 | 0.0 | 2.0 | 0.00 | 0.00 | 0.00 | 52 | 1014.6 |
| 20260905000126 | 62 | 75 | 0.0 | 3.0 | 0.00 | 0.00 | 0.00 | 51 | 1014.5 |
| 20260904235529 | 62 | 213 | 0.0 | 3.0 | 0.00 | 0.00 | 0.00 | 52 | 1014.5 |
| 20260904235027 | 62 | 182 | 0.0 | 5.0 | 0.00 | 0.00 | 0.00 | 51 | 1014.5 |
| 20260904234616 | 62 | 221 | 0.0 | 5.0 | 0.00 | 0.00 | 0.00 | 53 | 1014.6 |
| 20260904234021 | 62 | 223 | 2.0 | 6.0 | 0.00 | 0.00 | 0.00 | 51 | 1014.4 |
| 20260904233538 | 62 | 200 | 2.0 | 4.0 | 0.00 | 0.00 | 0.00 | 49 | 1014.5 |
| 20260904233127 | 62 | 190 | 1.0 | 4.0 | 0.00 | 0.00 | 0.00 | 49 | 1014.5 |
| 20260904232532 | 62 | 156 | 2.0 | 5.0 | 0.00 | 0.00 | 0.00 | 49 | 1014.5 |
| 20260904232043 | 63 | 244 | 0.0 | 5.0 | 0.00 | 0.00 | 0.00 | 48 | 1014.4 |
| 20260904231635 | 63 | 200 | 1.0 | 7.0 | 0.00 | 0.00 | 0.00 | 49 | 1014.4 |
| 20260904231032 | 63 | 221 | 1.0 | 4.0 | 0.00 | 0.00 | 0.00 | 49 | 1014.6 |
| 20260904230525 | 63 | 174 | 0.0 | 5.0 | 0.00 | 0.00 | 0.00 | 49 | 1014.4 |
| 20260904230128 | 63 | 169 | 2.0 | 7.0 | 0.00 | 0.00 | 0.00 | 49 | 1014.4 |
| 20260904225536 | 63 | 196 | 0.0 | 5.0 | 0.00 | 0.00 | 0.00 | 50 | 1014.4 |
| 20260904225026 | 63 | 110 | 1.0 | 4.0 | 0.00 | 0.00 | 0.00 | 53 | 1014.4 |
| 20260904224634 | 63 | 165 | 0.0 | 3.0 | 0.00 | 0.00 | 0.00 | 51 | 1014.4 |
| 20260904224028 | 63 | 313 | 0.0 | 4.0 | 0.00 | 0.00 | 0.00 | 50 | 1014.4 |
| 20260904223528 | 64 | 315 | 1.0 | 5.0 | 0.00 | 0.00 | 0.00 | 49 | 1014.6 |
| 20260904223107 | 64 | 203 | 1.0 | 5.0 | 0.00 | 0.00 | 0.00 | 50 | 1014.5 |
| 20260904222537 | 64 | 5 | 1.0 | 5.0 | 0.00 | 0.00 | 0.00 | 50 | 1014.4 |
| 20260904222029 | 65 | 45 | 1.0 | 4.0 | 0.00 | 0.00 | 0.00 | 48 | 1014.5 |
| 20260904221638 | 65 | 165 | 1.0 | 6.0 | 0.00 | 0.00 | 0.00 | 49 | 1014.3 |
| 20260904221031 | 65 | 62 | 2.0 | 6.0 | 0.00 | 0.00 | 0.00 | 51 | 1014.2 |
| 20260904220526 | 64 | 30 | 1.0 | 5.0 | 0.00 | 0.00 | 0.00 | 53 | 1014.2 |
| 20260904220133 | 64 | 81 | 1.0 | 5.0 | 0.00 | 0.00 | 0.00 | 50 | 1014.4 |
| 20260904215534 | 64 | 32 | 1.0 | 6.0 | 0.00 | 0.00 | 0.00 | 49 | 1014.4 |
| 20260904215037 | 65 | 208 | 0.0 | 6.0 | 0.00 | 0.00 | 0.00 | 50 | 1014.3 |
| 20260904214638 | 66 | 352 | 1.0 | 5.0 | 0.00 | 0.00 | 0.00 | 48 | 1014.4 |
| 20260904214028 | 66 | 178 | 1.0 | 6.0 | 0.00 | 0.00 | 0.00 | 48 | 1014.4 |
| 20260904213541 | 66 | 187 | 3.0 | 6.0 | 0.00 | 0.00 | 0.00 | 45 | 1014.4 |
| 20260904213132 | 65 | 24 | 0.0 | 4.0 | 0.00 | 0.00 | 0.00 | 48 | 1014.2 |
| 20260904212529 | 64 | 352 | 1.0 | 3.0 | 0.00 | 0.00 | 0.00 | 50 | 1014.3 |
| 20260904212024 | 64 | 161 | 0.0 | 2.0 | 0.00 | 0.00 | 0.00 | 50 | 1014.4 |
| 20260904211640 | 63 | 44 | 0.0 | 7.0 | 0.00 | 0.00 | 0.00 | 51 | 1014.4 |
| 20260904211028 | 63 | 5 | 0.0 | 7.0 | 0.00 | 0.00 | 0.00 | 52 | 1014.4 |
| 20260904210539 | 63 | 157 | 0.0 | 2.0 | 0.00 | 0.00 | 0.00 | 55 | 1014.3 |
| 20260904210125 | 63 | 161 | 0.0 | 3.0 | 0.00 | 0.00 | 0.00 | 54 | 1014.3 |
| 20260904205530 | 63 | 102 | 1.0 | 6.0 | 0.00 | 0.00 | 0.00 | 54 | 1014.2 |
| 20260904205031 | 63 | 229 | 2.0 | 6.0 | 0.00 | 0.00 | 0.00 | 55 | 1014.2 |
| 20260904204630 | 63 | 104 | 1.0 | 7.0 | 0.00 | 0.00 | 0.00 | 54 | 1014.3 |
| 20260904204038 | 63 | 178 | 0.0 | 2.0 | 0.00 | 0.00 | 0.00 | 58 | 1014.1 |
| 20260904203540 | 63 | 204 | 0.0 | 4.0 | 0.00 | 0.00 | 0.00 | 55 | 1014.2 |
| 20260904203134 | 63 | 94 | 2.0 | 4.0 | 0.00 | 0.00 | 0.00 | 55 | 1014.3 |
| 20260904202523 | 64 | 212 | 1.0 | 7.0 | 0.00 | 0.00 | 0.00 | 54 | 1014.3 |
| 20260904202044 | 64 | 9 | 2.0 | 9.0 | 0.00 | 0.00 | 0.00 | 57 | 1014.2 |
| 20260904201621 | 63 | 130 | 3.0 | 9.0 | 0.00 | 0.00 | 0.00 | 54 | 1014.0 |
| 20260904201037 | 63 | 225 | 2.0 | 4.0 | 0.00 | 0.00 | 0.00 | 55 | 1014.2 |
| 20260904200536 | 62 | 118 | 0.0 | 2.0 | 0.00 | 0.00 | 0.00 | 59 | 1014.2 |
| 20260904200135 | 62 | 22 | 0.0 | 4.0 | 0.00 | 0.00 | 0.00 | 59 | 1014.4 |
| 20260904195527 | 62 | 134 | 1.0 | 4.0 | 0.00 | 0.00 | 0.00 | 60 | 1014.2 |
| 20260904195024 | 63 | 100 | 1.0 | 4.0 | 0.00 | 0.00 | 0.00 | 55 | 1014.2 |
| 20260904194635 | 63 | 229 | 1.0 | 6.0 | 0.00 | 0.00 | 0.00 | 56 | 1014.3 |
| 20260904194045 | 63 | 15 | 2.0 | 6.0 | 0.00 | 0.00 | 0.00 | 56 | 1014.4 |
| 20260904193548 | 62 | 22 | 1.0 | 6.0 | 0.00 | 0.00 | 0.00 | 60 | 1014.4 |
| 20260904193131 | 62 | 182 | 0.0 | 6.0 | 0.00 | 0.00 | 0.00 | 63 | 1014.5 |
| 20260904192536 | 62 | 265 | 1.0 | 4.0 | 0.00 | 0.00 | 0.00 | 62 | 1014.6 |
| 20260904192045 | 62 | 32 | 0.0 | 5.0 | 0.00 | 0.00 | 0.00 | 59 | 1014.5 |
| 20260904191626 | 61 | 67 | 1.0 | 5.0 | 0.00 | 0.00 | 0.00 | 65 | 1014.4 |
| 20260904191025 | 60 | 10 | 2.0 | 4.0 | 0.00 | 0.00 | 0.00 | 64 | 1014.4 |
| 20260904190537 | 60 | 342 | 2.0 | 4.0 | 0.00 | 0.00 | 0.00 | 61 | 1014.4 |
| 20260904190128 | 61 | 73 | 1.0 | 4.0 | 0.00 | 0.00 | 0.00 | 67 | 1014.5 |
| 20260904185535 | 60 | 5 | 1.0 | 4.0 | 0.00 | 0.00 | 0.00 | 68 | 1014.4 |
| 20260904185025 | 60 | 16 | 1.0 | 4.0 | 0.00 | 0.00 | 0.00 | 69 | 1014.5 |
| 20260904184603 | 60 | 348 | 0.0 | 4.0 | 0.00 | 0.00 | 0.00 | 71 | 1014.5 |
| 20260904184035 | 59 | 269 | 2.0 | 4.0 | 0.00 | 0.00 | 0.00 | 70 | 1014.6 |
| 20260904183525 | 58 | 10 | 1.0 | 3.0 | 0.00 | 0.00 | 0.00 | 73 | 1014.6 |
| 20260904183138 | 58 | 34 | 0.0 | 2.0 | 0.00 | 0.00 | 0.00 | 74 | 1014.6 |
| 20260904182540 | 58 | 15 | 0.0 | 3.0 | 0.00 | 0.00 | 0.00 | 72 | 1014.5 |
| 20260904182030 | 58 | 21 | 0.0 | 3.0 | 0.00 | 0.00 | 0.00 | 74 | 1014.5 |
| 20260904181603 | 58 | 43 | 0.0 | 2.0 | 0.00 | 0.00 | 0.00 | 77 | 1014.5 |
| 20260904181025 | 58 | 96 | 0.0 | 1.0 | 0.00 | 0.00 | 0.00 | 76 | 1014.5 |
| 20260904180548 | 58 | 71 | 0.0 | 3.0 | 0.00 | 0.00 | 0.00 | 76 | 1014.7 |
| 20260904180145 | 58 | 84 | 0.0 | 3.0 | 0.00 | 0.00 | 0.00 | 77 | 1014.7 |
| 20260904175531 | 58 | 80 | 0.0 | 3.0 | 0.00 | 0.00 | 0.00 | 78 | 1014.6 |
| 20260904175030 | 58 | 159 | 0.0 | 3.0 | 0.00 | 0.00 | 0.00 | 76 | 1014.6 |
| 20260904174627 | 58 | 184 | 1.0 | 3.0 | 0.00 | 0.00 | 0.00 | 76 | 1014.8 |
| 20260904174036 | 57 | 82 | 0.0 | 2.0 | 0.00 | 0.00 | 0.00 | 78 | 1014.7 |
| 20260904173527 | 56 | 88 | 1.0 | 2.0 | 0.00 | 0.00 | 0.00 | 77 | 1014.6 |
| 20260904173125 | 55 | 117 | 0.0 | 0.0 | 0.00 | 0.00 | 0.00 | 82 | 1014.4 |
| 20260904172533 | 55 | 64 | 0.0 | 1.0 | 0.00 | 0.00 | 0.00 | 82 | 1014.4 |
| 20260904172024 | 54 | 330 | 0.0 | 1.0 | 0.00 | 0.00 | 0.00 | 84 | 1014.4 |
| 20260904171621 | 54 | 350 | 0.0 | 2.0 | 0.00 | 0.00 | 0.00 | 82 | 1014.2 |
| 20260904171044 | 54 | 338 | 0.0 | 2.0 | 0.00 | 0.00 | 0.00 | 85 | 1014.1 |
| 20260904170543 | 54 | 55 | 0.0 | 1.0 | 0.00 | 0.00 | 0.00 | 87 | 1014.1 |
| 20260904170134 | 53 | 153 | 0.0 | 1.0 | 0.00 | 0.00 | 0.00 | 89 | 1014.2 |
| 20260904165528 | 53 | 109 | 0.0 | 3.0 | 0.00 | 0.00 | 0.00 | 89 | 1014.2 |
| 20260904165034 | 52 | 92 | 1.0 | 3.0 | 0.00 | 0.00 | 0.00 | 89 | 1014.3 |
| 20260904164642 | 52 | 178 | 0.0 | 0.0 | 0.00 | 0.00 | 0.00 | 90 | 1014.2 |
| 20260904164028 | 52 | 267 | 0.0 | 0.0 | 0.00 | 0.00 | 0.00 | 91 | 1014.2 |
| 20260904163526 | 51 | 315 | 0.0 | 0.0 | 0.00 | 0.00 | 0.00 | 92 | 1014.2 |
| 20260904163122 | 51 | 56 | 0.0 | 0.0 | 0.00 | 0.00 | 0.00 | 93 | 1014.1 |
| 20260904162528 | 51 | 42 | 0.0 | 0.0 | 0.00 | 0.00 | 0.00 | 94 | 1014.2 |
| 20260904162025 | 51 | 352 | 0.0 | 0.0 | 0.00 | 0.00 | 0.00 | 93 | 1014.2 |
| 20260904161610 | 51 | 178 | 0.0 | 0.0 | 0.00 | 0.00 | 0.00 | 94 | 1014.2 |
| 20260904161024 | 51 | 179 | 0.0 | 0.0 | 0.00 | 0.00 | 0.00 | 94 | 1014.3 |
| 20260904160536 | 50 | 238 | 0.0 | 0.0 | 0.00 | 0.00 | 0.00 | 94 | 1014.3 |
| 20260904160141 | 50 | 238 | 0.0 | 1.0 | 0.00 | 0.00 | 0.00 | 95 | 1014.3 |
| 20260904155519 | 50 | 226 | 0.0 | 3.0 | 0.00 | 0.00 | 0.00 | 95 | 1014.2 |
| 20260904155025 | 50 | 245 | 0.0 | 4.0 | 0.00 | 0.00 | 0.00 | 95 | 1014.2 |
| 20260904154658 | 50 | 153 | 0.0 | 4.0 | 0.00 | 0.00 | 0.00 | 95 | 1014.2 |
| 20260904154028 | 50 | 173 | 1.0 | 4.0 | 0.00 | 0.00 | 0.00 | 96 | 1014.1 |
| 20260904153530 | 50 | 204 | 0.0 | 1.0 | 0.00 | 0.00 | 0.00 | 96 | 1014.2 |
| 20260904153110 | 50 | 211 | 0.0 | 2.0 | 0.00 | 0.00 | 0.00 | 96 | 1014.1 |
| 20260904152536 | 50 | 230 | 0.0 | 2.0 | 0.00 | 0.00 | 0.00 | 96 | 1014.1 |
| 20260904152024 | 49 | 247 | 0.0 | 0.0 | 0.00 | 0.00 | 0.00 | 96 | 1014.0 |
| 20260904151633 | 49 | 247 | 0.0 | 0.0 | 0.00 | 0.00 | 0.00 | 96 | 1014.1 |
| 20260904151040 | 49 | 254 | 0.0 | 0.0 | 0.00 | 0.00 | 0.00 | 96 | 1014.0 |
| 20260904150533 | 49 | 300 | 0.0 | 2.0 | 0.00 | 0.00 | 0.00 | 96 | 1014.0 |
| 20260904150134 | 49 | 300 | 0.0 | 3.0 | 0.00 | 0.00 | 0.00 | 97 | 1013.9 |
| 20260904145533 | 49 | 246 | 0.0 | 3.0 | 0.00 | 0.00 | 0.00 | 97 | 1013.9 |
| 20260904145023 | 49 | 225 | 0.0 | 0.0 | 0.00 | 0.00 | 0.00 | 97 | 1013.9 |
| 20260904144628 | 49 | 263 | 0.0 | 0.0 | 0.00 | 0.00 | 0.00 | 97 | 1013.9 |
| 20260904144026 | 49 | 263 | 0.0 | 0.0 | 0.00 | 0.00 | 0.00 | 97 | 1013.7 |
| 20260904143531 | 49 | 263 | 0.0 | 0.0 | 0.00 | 0.00 | 0.00 | 96 | 1013.6 |
| 20260904143130 | 49 | 263 | 0.0 | 0.0 | 0.00 | 0.00 | 0.00 | 96 | 1013.6 |
| 20260904142531 | 49 | 263 | 0.0 | 0.0 | 0.00 | 0.00 | 0.00 | 97 | 1013.5 |
| 20260904142025 | 49 | 263 | 0.0 | 0.0 | 0.00 | 0.00 | 0.00 | 97 | 1013.5 |
| 20260904141602 | 48 | 263 | 0.0 | 0.0 | 0.00 | 0.00 | 0.00 | 96 | 1013.4 |
| 20260904141028 | 48 | 271 | 0.0 | 0.0 | 0.00 | 0.00 | 0.00 | 96 | 1013.4 |
| 20260904140536 | 48 | 271 | 0.0 | 0.0 | 0.00 | 0.00 | 0.00 | 96 | 1013.4 |
| 20260904140220 | 48 | 271 | 0.0 | 0.0 | 0.00 | 0.00 | 0.00 | 96 | 1013.3 |
| 20260904135541 | 48 | 271 | 0.0 | 0.0 | 0.00 | 0.00 | 0.00 | 96 | 1013.2 |
| 20260904135042 | 48 | 271 | 0.0 | 0.0 | 0.00 | 0.00 | 0.00 | 96 | 1013.1 |
| 20260904134632 | 48 | 271 | 0.0 | 0.0 | 0.00 | 0.00 | 0.00 | 96 | 1013.0 |
| 20260904134040 | 48 | 271 | 0.0 | 0.0 | 0.00 | 0.00 | 0.00 | 96 | 1013.0 |
| 20260904133531 | 48 | 271 | 0.0 | 0.0 | 0.00 | 0.00 | 0.00 | 96 | 1012.9 |
| 20260904133134 | 48 | 271 | 0.0 | 0.0 | 0.00 | 0.00 | 0.00 | 96 | 1012.8 |
| 20260904132531 | 48 | 271 | 0.0 | 0.0 | 0.00 | 0.00 | 0.00 | 96 | 1012.9 |
| 20260904132031 | 48 | 271 | 0.0 | 0.0 | 0.00 | 0.00 | 0.00 | 96 | 1012.8 |
| 20260904131719 | 48 | 271 | 0.0 | 0.0 | 0.00 | 0.00 | 0.00 | 96 | 1012.8 |
| 20260904131017 | 48 | 271 | 0.0 | 0.0 | 0.00 | 0.00 | 0.00 | 96 | 1012.8 |
| 20260904130527 | 48 | 271 | 0.0 | 0.0 | 0.00 | 0.00 | 0.00 | 96 | 1012.7 |
| 20260904130203 | 48 | 271 | 0.0 | 0.0 | 0.00 | 0.00 | 0.00 | 96 | 1012.6 |
| 20260904125534 | 48 | 273 | 0.0 | 0.0 | 0.00 | 0.00 | 0.00 | 96 | 1012.5 |
| 20260904125037 | 48 | 254 | 0.0 | 0.0 | 0.00 | 0.00 | 0.00 | 96 | 1012.5 |
| 20260904124645 | 48 | 228 | 0.0 | 0.0 | 0.00 | 0.00 | 0.00 | 95 | 1012.5 |
| 20260904124020 | 48 | 228 | 0.0 | 0.0 | 0.00 | 0.00 | 0.00 | 95 | 1012.7 |